SXB6276 SBGR-SBCH

Flight info

Callsign SXB6276
Flight time 1h 9m
Altitude 34000
Route SOVSI UZ85 RAXIT DCT UMDOR
Aircraft A320/M-SDE2FGHIM1RWXY/SB1

Departure

Time 2026-04-15 15:28
Airport São Paulo/Guarulhos–Governor André Franco Montoro International Airport (SBGR)

Arrival

Time 2026-04-15 16:37
Airport Serafin Enoss Bertaso Airport (SBCH)
Time Latitude Longitude Altitude Speed Heading
2026-04-15 14:56 -23.43105 -46.48676 2465 ft 0 kts 95°
2026-04-15 15:13 -23.43102 -46.48691 2470 ft 4 kts 134°
2026-04-15 15:13 -23.43084 -46.48707 2465 ft 4 kts 112°
2026-04-15 15:13 -23.43079 -46.48734 2467 ft 4 kts 108°
2026-04-15 15:14 -23.43067 -46.48759 2468 ft 4 kts 139°
2026-04-15 15:14 -23.43045 -46.48770 2465 ft 3 kts 183°
2026-04-15 15:14 -23.43033 -46.48769 2465 ft 0 kts 186°
2026-04-15 15:17 -23.43058 -46.48771 2466 ft 6 kts 186°
2026-04-15 15:17 -23.43115 -46.48777 2467 ft 12 kts 184°
2026-04-15 15:17 -23.43176 -46.48705 2469 ft 16 kts 109°
2026-04-15 15:17 -23.43188 -46.48583 2465 ft 17 kts 89°
2026-04-15 15:18 -23.43188 -46.48547 2465 ft 0 kts 92°
2026-04-15 15:26 -23.43189 -46.48527 2465 ft 8 kts 91°
2026-04-15 15:26 -23.43195 -46.48432 2466 ft 17 kts 102°
2026-04-15 15:27 -23.43302 -46.48364 2468 ft 19 kts 163°
2026-04-15 15:27 -23.43409 -46.48269 2461 ft 29 kts 84°
2026-04-15 15:27 -23.43308 -46.47890 2464 ft 83 kts 73°
2026-04-15 15:27 -23.43093 -46.47096 2467 ft 133 kts 74°
2026-04-15 15:28 -23.42801 -46.46028 2768 ft 149 kts 73°
2026-04-15 15:28 -23.42492 -46.44942 3423 ft 150 kts 73°
2026-04-15 15:28 -23.42174 -46.43864 3922 ft 150 kts 74°
2026-04-15 15:28 -23.41850 -46.42752 4356 ft 163 kts 74°
2026-04-15 15:29 -23.41486 -46.41495 4650 ft 185 kts 73°
2026-04-15 15:29 -23.41076 -46.40076 4909 ft 208 kts 73°
2026-04-15 15:29 -23.40620 -46.38491 5307 ft 230 kts 73°
2026-04-15 15:29 -23.40188 -46.36741 5825 ft 246 kts 84°
2026-04-15 15:30 -23.40385 -46.34881 6564 ft 253 kts 108°
2026-04-15 15:30 -23.40975 -46.33060 7352 ft 257 kts 110°
2026-04-15 15:30 -23.41581 -46.31218 8133 ft 261 kts 110°
2026-04-15 15:30 -23.42203 -46.29340 8808 ft 266 kts 110°
2026-04-15 15:31 -23.42822 -46.27488 8986 ft 261 kts 112°
2026-04-15 15:31 -23.43883 -46.25781 9250 ft 285 kts 138°
2026-04-15 15:31 -23.45578 -46.24631 9961 ft 292 kts 161°
2026-04-15 15:31 -23.47620 -46.24318 10423 ft 308 kts 186°
2026-04-15 15:32 -23.49672 -46.25160 10738 ft 327 kts 217°
2026-04-15 15:32 -23.51187 -46.27036 11317 ft 335 kts 236°
2026-04-15 15:32 -23.52468 -46.29180 12017 ft 339 kts 237°
2026-04-15 15:32 -23.53742 -46.31362 12699 ft 343 kts 236°
2026-04-15 15:33 -23.55027 -46.33573 13396 ft 348 kts 236°
2026-04-15 15:33 -23.56330 -46.35809 14064 ft 351 kts 237°
2026-04-15 15:33 -23.57653 -46.38061 14671 ft 354 kts 236°
2026-04-15 15:33 -23.58994 -46.40326 15330 ft 356 kts 237°
2026-04-15 15:34 -23.60346 -46.42602 15969 ft 358 kts 237°
2026-04-15 15:34 -23.61707 -46.44887 16592 ft 361 kts 237°
2026-04-15 15:34 -23.63060 -46.47156 17260 ft 362 kts 237°
2026-04-15 15:34 -23.64436 -46.49465 17920 ft 364 kts 237°
2026-04-15 15:35 -23.65817 -46.51786 18503 ft 367 kts 237°
2026-04-15 15:35 -23.67210 -46.54128 19027 ft 370 kts 237°
2026-04-15 15:35 -23.68617 -46.56500 19541 ft 373 kts 237°
2026-04-15 15:35 -23.70027 -46.58883 20082 ft 375 kts 237°
2026-04-15 15:36 -23.71448 -46.61286 20615 ft 378 kts 237°
2026-04-15 15:36 -23.72877 -46.63708 21130 ft 381 kts 237°
2026-04-15 15:36 -23.74318 -46.66147 21643 ft 384 kts 237°
2026-04-15 15:36 -23.75777 -46.68610 22171 ft 387 kts 237°
2026-04-15 15:37 -23.77242 -46.71090 22688 ft 390 kts 237°
2026-04-15 15:37 -23.78718 -46.73595 23214 ft 393 kts 237°
2026-04-15 15:37 -23.80202 -46.76114 23735 ft 396 kts 237°
2026-04-15 15:37 -23.81700 -46.78654 24168 ft 399 kts 237°
2026-04-15 15:38 -23.83202 -46.81207 24606 ft 401 kts 237°
2026-04-15 15:38 -23.84712 -46.83771 25044 ft 403 kts 237°
2026-04-15 15:38 -23.86234 -46.86354 25467 ft 405 kts 237°
2026-04-15 15:38 -23.87740 -46.88910 25885 ft 407 kts 237°
2026-04-15 15:39 -23.89271 -46.91511 26300 ft 408 kts 237°
2026-04-15 15:39 -23.90811 -46.94129 26721 ft 410 kts 237°
2026-04-15 15:39 -23.92357 -46.96762 27136 ft 412 kts 237°
2026-04-15 15:39 -23.93908 -46.99405 27521 ft 414 kts 238°
2026-04-15 15:40 -23.95467 -47.02068 27909 ft 417 kts 238°
2026-04-15 15:40 -23.97034 -47.04741 28299 ft 419 kts 238°
2026-04-15 15:40 -23.98611 -47.07425 28697 ft 421 kts 238°
2026-04-15 15:40 -24.00198 -47.10123 29099 ft 423 kts 238°
2026-04-15 15:41 -24.01792 -47.12837 29502 ft 425 kts 238°
2026-04-15 15:41 -24.03390 -47.15560 29907 ft 427 kts 238°
2026-04-15 15:41 -24.04999 -47.18309 30282 ft 429 kts 239°
2026-04-15 15:41 -24.06610 -47.21069 30601 ft 432 kts 238°
2026-04-15 15:42 -24.08231 -47.23852 30927 ft 434 kts 238°
2026-04-15 15:42 -24.09857 -47.26643 31259 ft 436 kts 238°
2026-04-15 15:42 -24.11492 -47.29447 31587 ft 438 kts 238°
2026-04-15 15:42 -24.13134 -47.32262 31935 ft 439 kts 238°
2026-04-15 15:43 -24.14773 -47.35075 32411 ft 437 kts 238°
2026-04-15 15:43 -24.16404 -47.37870 32901 ft 435 kts 238°
2026-04-15 15:43 -24.18032 -47.40662 33350 ft 434 kts 238°
2026-04-15 15:43 -24.19649 -47.43443 33828 ft 433 kts 238°
2026-04-15 15:44 -24.21244 -47.46191 34049 ft 433 kts 238°
2026-04-15 15:44 -24.22841 -47.48938 34096 ft 423 kts 238°
2026-04-15 15:44 -24.25970 -47.54325 34092 ft 416 kts 238°
2026-04-15 15:45 -24.29075 -47.59671 34092 ft 415 kts 239°
2026-04-15 15:45 -24.32179 -47.65035 34095 ft 417 kts 238°
2026-04-15 15:46 -24.35291 -47.70400 34092 ft 417 kts 238°
2026-04-15 15:46 -24.38397 -47.75764 34093 ft 417 kts 238°
2026-04-15 15:47 -24.41505 -47.81142 34096 ft 417 kts 238°
2026-04-15 15:47 -24.44618 -47.86528 34084 ft 419 kts 238°
2026-04-15 15:48 -24.47735 -47.91939 34080 ft 420 kts 238°
2026-04-15 15:48 -24.50860 -47.97361 34093 ft 420 kts 238°
2026-04-15 15:49 -24.53979 -48.02782 34094 ft 420 kts 238°
2026-04-15 15:49 -24.57101 -48.08220 34090 ft 421 kts 238°
2026-04-15 15:50 -24.60219 -48.13668 34090 ft 422 kts 238°
2026-04-15 15:50 -24.63338 -48.19088 34093 ft 422 kts 238°
2026-04-15 15:51 -24.66474 -48.24553 34091 ft 423 kts 238°
2026-04-15 15:51 -24.69599 -48.30033 34091 ft 423 kts 238°
2026-04-15 15:52 -24.72730 -48.35521 34098 ft 424 kts 238°
2026-04-15 15:52 -24.75865 -48.41012 34105 ft 424 kts 238°
2026-04-15 15:53 -24.79003 -48.46517 34102 ft 424 kts 238°
2026-04-15 15:53 -24.82140 -48.52019 34103 ft 425 kts 238°
2026-04-15 15:54 -24.85280 -48.57532 34106 ft 425 kts 238°
2026-04-15 15:54 -24.88416 -48.63054 34107 ft 425 kts 238°
2026-04-15 15:55 -24.91531 -48.68539 34109 ft 425 kts 238°
2026-04-15 15:55 -24.94667 -48.74068 34113 ft 425 kts 238°
2026-04-15 15:56 -24.97794 -48.79593 34113 ft 425 kts 238°
2026-04-15 15:56 -25.00924 -48.85133 34117 ft 425 kts 238°
2026-04-15 15:57 -25.04057 -48.90674 34116 ft 425 kts 238°
2026-04-15 15:57 -25.07184 -48.96209 34115 ft 426 kts 239°
2026-04-15 15:58 -25.10313 -49.01769 34113 ft 426 kts 238°
2026-04-15 15:58 -25.13440 -49.07323 34110 ft 426 kts 239°
2026-04-15 15:59 -25.16540 -49.12843 34106 ft 427 kts 238°
2026-04-15 15:59 -25.19666 -49.18424 34104 ft 427 kts 239°
2026-04-15 16:00 -25.22794 -49.24000 34110 ft 427 kts 238°
2026-04-15 16:00 -25.25927 -49.29584 34107 ft 428 kts 239°
2026-04-15 16:01 -25.29055 -49.35176 34103 ft 428 kts 238°
2026-04-15 16:01 -25.32192 -49.40787 34162 ft 429 kts 239°
2026-04-15 16:02 -25.35327 -49.46400 34149 ft 429 kts 239°
2026-04-15 16:02 -25.38459 -49.52020 34138 ft 429 kts 238°
2026-04-15 16:03 -25.41590 -49.57641 34111 ft 430 kts 239°
2026-04-15 16:03 -25.44719 -49.63276 34095 ft 430 kts 239°
2026-04-15 16:04 -25.47848 -49.68908 34098 ft 430 kts 239°
2026-04-15 16:04 -25.50981 -49.74547 34103 ft 430 kts 239°
2026-04-15 16:05 -25.54094 -49.80156 34089 ft 430 kts 239°
2026-04-15 16:05 -25.57220 -49.85804 34091 ft 430 kts 239°
2026-04-15 16:06 -25.60341 -49.91470 34091 ft 431 kts 239°
2026-04-15 16:06 -25.63467 -49.97125 34096 ft 431 kts 239°
2026-04-15 16:07 -25.66601 -50.02791 34090 ft 431 kts 240°
2026-04-15 16:08 -25.71295 -50.11309 34084 ft 432 kts 239°
2026-04-15 16:08 -25.74419 -50.17004 34087 ft 432 kts 239°
2026-04-15 16:09 -25.77545 -50.22701 34087 ft 432 kts 240°
2026-04-15 16:09 -25.80675 -50.28405 34085 ft 433 kts 239°
2026-04-15 16:10 -25.83804 -50.34120 34086 ft 433 kts 240°
2026-04-15 16:10 -25.86910 -50.39800 34086 ft 433 kts 239°
2026-04-15 16:11 -25.90042 -50.45518 34090 ft 434 kts 239°
2026-04-15 16:11 -25.93172 -50.51261 34087 ft 434 kts 240°
2026-04-15 16:12 -25.96301 -50.57008 34083 ft 435 kts 240°
2026-04-15 16:12 -25.99439 -50.62765 34089 ft 435 kts 239°
2026-04-15 16:13 -26.02567 -50.68530 34090 ft 435 kts 240°
2026-04-15 16:13 -26.05698 -50.74296 34090 ft 436 kts 240°
2026-04-15 16:14 -26.08831 -50.80071 34089 ft 436 kts 240°
2026-04-15 16:14 -26.11959 -50.85852 34096 ft 436 kts 241°
2026-04-15 16:15 -26.15063 -50.91603 34100 ft 436 kts 240°
2026-04-15 16:15 -26.18191 -50.97388 34103 ft 436 kts 240°
2026-04-15 16:16 -26.21320 -51.03170 34100 ft 436 kts 241°
2026-04-15 16:16 -26.24457 -51.08991 34098 ft 445 kts 239°
2026-04-15 16:17 -26.27664 -51.14962 34094 ft 451 kts 239°
2026-04-15 16:17 -26.30341 -51.19951 34095 ft 452 kts 242°
2026-04-15 16:18 -26.33568 -51.25965 34095 ft 452 kts 241°
2026-04-15 16:18 -26.36799 -51.31971 34100 ft 452 kts 241°
2026-04-15 16:19 -26.40027 -51.37995 34099 ft 452 kts 240°
2026-04-15 16:19 -26.43244 -51.44024 34098 ft 452 kts 239°
2026-04-15 16:20 -26.46466 -51.50049 34100 ft 452 kts 240°
2026-04-15 16:20 -26.49689 -51.56085 34103 ft 452 kts 240°
2026-04-15 16:21 -26.52904 -51.62117 34091 ft 453 kts 240°
2026-04-15 16:21 -26.54499 -51.65121 33338 ft 446 kts 241°
2026-04-15 16:21 -26.56054 -51.68046 32366 ft 441 kts 241°
2026-04-15 16:21 -26.57604 -51.70959 31524 ft 432 kts 241°
2026-04-15 16:22 -26.59121 -51.73812 30700 ft 423 kts 242°
2026-04-15 16:22 -26.60604 -51.76609 29888 ft 413 kts 242°
2026-04-15 16:22 -26.62049 -51.79342 28956 ft 406 kts 242°
2026-04-15 16:22 -26.63478 -51.82045 27996 ft 401 kts 242°
2026-04-15 16:23 -26.64888 -51.84707 27098 ft 396 kts 242°
2026-04-15 16:23 -26.66285 -51.87335 26230 ft 391 kts 242°
2026-04-15 16:23 -26.67671 -51.89947 25384 ft 388 kts 242°
2026-04-15 16:23 -26.69043 -51.92540 24571 ft 386 kts 242°
2026-04-15 16:24 -26.70403 -51.95114 23791 ft 383 kts 242°
2026-04-15 16:24 -26.71752 -51.97670 22888 ft 380 kts 242°
2026-04-15 16:24 -26.73086 -52.00197 21998 ft 375 kts 243°
2026-04-15 16:24 -26.74404 -52.02698 21134 ft 371 kts 243°
2026-04-15 16:25 -26.75709 -52.05177 20296 ft 367 kts 242°
2026-04-15 16:25 -26.77002 -52.07634 19451 ft 364 kts 242°
2026-04-15 16:25 -26.78264 -52.10034 18644 ft 361 kts 242°
2026-04-15 16:25 -26.79545 -52.12473 17784 ft 357 kts 243°
2026-04-15 16:26 -26.80782 -52.14826 16979 ft 352 kts 241°
2026-04-15 16:26 -26.82010 -52.17169 16164 ft 347 kts 241°
2026-04-15 16:26 -26.83222 -52.19481 15369 ft 342 kts 241°
2026-04-15 16:26 -26.84418 -52.21758 14637 ft 336 kts 240°
2026-04-15 16:27 -26.85596 -52.24000 13890 ft 331 kts 241°
2026-04-15 16:27 -26.86749 -52.26192 13253 ft 321 kts 240°
2026-04-15 16:27 -26.87856 -52.28296 12871 ft 306 kts 241°
2026-04-15 16:27 -26.88913 -52.30308 12499 ft 293 kts 242°
2026-04-15 16:28 -26.89923 -52.32241 12146 ft 282 kts 241°
2026-04-15 16:28 -26.90895 -52.34099 11806 ft 272 kts 242°
2026-04-15 16:28 -26.91853 -52.35933 11475 ft 274 kts 242°
2026-04-15 16:28 -26.92816 -52.37779 11131 ft 273 kts 242°
2026-04-15 16:29 -26.93773 -52.39613 10782 ft 273 kts 243°
2026-04-15 16:29 -26.94734 -52.41448 10447 ft 272 kts 242°
2026-04-15 16:29 -26.95687 -52.43268 10110 ft 270 kts 242°
2026-04-15 16:29 -26.96619 -52.45051 9767 ft 269 kts 243°
2026-04-15 16:30 -26.97563 -52.46858 9417 ft 269 kts 243°
2026-04-15 16:30 -26.98509 -52.48673 9062 ft 269 kts 243°
2026-04-15 16:30 -26.99455 -52.50488 8765 ft 270 kts 243°
2026-04-15 16:30 -27.00405 -52.52313 8423 ft 272 kts 243°
2026-04-15 16:31 -27.01352 -52.54130 8271 ft 266 kts 243°
2026-04-15 16:31 -27.02252 -52.55935 8205 ft 263 kts 250°
2026-04-15 16:31 -27.02734 -52.57882 8114 ft 258 kts 266°
2026-04-15 16:31 -27.02693 -52.59907 7616 ft 264 kts 284°
2026-04-15 16:32 -27.02267 -52.61876 7451 ft 257 kts 287°
2026-04-15 16:32 -27.01859 -52.63817 7191 ft 255 kts 286°
2026-04-15 16:32 -27.01463 -52.65756 6890 ft 255 kts 285°
2026-04-15 16:32 -27.01169 -52.67710 6624 ft 256 kts 275°
2026-04-15 16:33 -27.01359 -52.69699 6392 ft 259 kts 259°
2026-04-15 16:33 -27.02027 -52.71572 5869 ft 261 kts 242°
2026-04-15 16:33 -27.03172 -52.73187 5188 ft 269 kts 225°
2026-04-15 16:33 -27.04695 -52.74374 4497 ft 264 kts 206°
2026-04-15 16:34 -27.06395 -52.74997 4065 ft 248 kts 189°
2026-04-15 16:34 -27.08023 -52.75084 3921 ft 222 kts 173°
2026-04-15 16:34 -27.09422 -52.74794 3844 ft 189 kts 160°
2026-04-15 16:34 -27.10538 -52.74251 3666 ft 165 kts 145°
2026-04-15 16:35 -27.11402 -52.73504 3423 ft 151 kts 129°
2026-04-15 16:35 -27.12043 -52.72615 3215 ft 145 kts 114°
2026-04-15 16:35 -27.12477 -52.71637 3020 ft 140 kts 103°
2026-04-15 16:35 -27.12718 -52.70599 2846 ft 136 kts 94°
2026-04-15 16:36 -27.12863 -52.69551 2668 ft 136 kts 95°
2026-04-15 16:36 -27.13016 -52.68511 2352 ft 135 kts 93°
2026-04-15 16:36 -27.13167 -52.67469 2274 ft 136 kts 94°
2026-04-15 16:36 -27.13305 -52.66412 2140 ft 132 kts 94°
2026-04-15 16:37 -27.13423 -52.65597 2125 ft 50 kts 100°
2026-04-15 16:37 -27.13452 -52.65456 2124 ft 8 kts 62°
2026-04-15 16:37 -27.13437 -52.65465 2124 ft 5 kts 297°
2026-04-15 16:37 -27.13426 -52.65557 2125 ft 19 kts 276°
2026-04-15 16:38 -27.13402 -52.65737 2129 ft 25 kts 279°
2026-04-15 16:38 -27.13375 -52.65938 2128 ft 26 kts 279°
2026-04-15 16:38 -27.13351 -52.66094 2129 ft 13 kts 303°
2026-04-15 16:38 -27.13264 -52.66091 2127 ft 15 kts 32°
2026-04-15 16:39 -27.13238 -52.66059 2132 ft 0 kts 58°